Regional Weather Roundup
Issued by NWS

Home | Current Version | Previous Version | Text Only | Print | Product List | Glossary Off
Versions: 1 2 3 4 5 6 7 8 9 10 11 12 13 14 15 16 17 18 19 20 21 22 23 24 25 26 27 28 29 30 31 32 33 34 35 36 37 38 39 40 41 42 43 44 45 46 47 48 49 50

000
ASUS43 KMKX 021011
RWRWI

WISCONSIN REGIONAL WEATHER ROUNDUP
NATIONAL WEATHER SERVICE MILWAUKEE/SULLIVAN WI
400 AM CST FRI DEC 02 2016

NOTE: "FAIR" INDICATES FEW OR NO CLOUDS BELOW 12,000 FEET WITH NO
SIGNIFICANT WEATHER AND/OR OBSTRUCTIONS TO VISIBILITY.

WIZ001-002-006>008-014>016-023>028-021100-
NORTHWEST WISCONSIN

CITY           SKY/WX    TMP DP  RH WIND       PRES   REMARKS
SUPERIOR ARPT  CLOUDY    30  24  76 NW9       30.09R WCI  22
ASHLAND        CLOUDY    29  23  78 W12       30.07R WCI  19
HAYWARD        CLOUDY    29  21  72 W5        30.06R WCI  24
SIREN          CLOUDY    29  22  74 NW3       30.09R
CUMBERLAND     CLOUDY    28  21  74 NW6       30.07R WCI  22
RICE LAKE      CLOUDY    29  22  74 NW5       30.09R WCI  24
CHETEK         CLOUDY    29  22  74 NW5       30.08R WCI  24
LADYSMITH      CLOUDY    30  23  76 NW8       30.06R WCI  22
EAU CLAIRE     CLOUDY    30  22  72 NW6       30.07R WCI  24
MENOMONIE      CLOUDY    31  21  67 NW7       30.09R WCI  24
NEW RICHMOND   CLOUDY    30  22  73 N8        30.10R WCI  22
OSCEOLA        CLOUDY    30  21  69 NW5       30.13R WCI  25
$$

WIZ003>005-009-010-017-018-021100-
NORTH CENTRAL WISCONSIN

CITY           SKY/WX    TMP DP  RH WIND       PRES   REMARKS
MANITOWISH WTR CLOUDY    26  26 100 NW9       29.99R WCI  17
ARBOR VITAE    CLOUDY    29  26  88 NW9       29.99R WCI  21
WOODRUFF       CLOUDY    29  26  88 NW9       29.99R WCI  21
RHINELANDER    CLOUDY    29  23  78 NW7       29.98R WCI  22
EAGLE RIVER    CLOUDY    27  23  83 NW9G17    29.97R WCI  18
LAND O LAKES   CLOUDY    27  24  89 NW9       29.98R WCI  18
PHILLIPS       CLOUDY    27  22  83 NW7       30.01S WCI  19
TOMAHAWK       CLOUDY    27  21  77 NW6       30.01R WCI  21
MEDFORD        CLOUDY    28  23  81 NW7       30.01R WCI  21
MERRILL        CLOUDY    29  23  76 NW9       30.01R WCI  21
$$

WIZ029-030-035-036-043>047-021100-
CENTRAL WISCONSIN

CITY           SKY/WX    TMP DP  RH WIND       PRES   REMARKS
WAUSAU         CLOUDY    30  24  78 NW9       30.00R WCI  22
MOSINEE        CLOUDY    30  27  86 NW7       30.02R WCI  23
MARSHFIELD     CLOUDY    29  21  72 NW14      30.02R WCI  18
STEVENS POINT  CLOUDY    29  20  70 NW6       30.03R WCI  23
WAUPACA        CLOUDY    34  25  69 CALM      30.03R
WAUTOMA        CLOUDY    32  23  69 NW8       30.04R WCI  25
WISC RAPIDS    CLOUDY    31  23  72 N7        30.04R WCI  24
CAMP DOUGLAS   CLOUDY    32  25  77 NW14      30.05R WCI  22
$$

WIZ011>013-019>022-031-037>040-048>050-021100-
NORTHEAST WISCONSIN

CITY           SKY/WX    TMP DP  RH WIND       PRES   REMARKS
ANTIGO         CLOUDY    28  24  86 NW9G16    29.98R WCI  19
SHAWANO        CLOUDY    33  23  67 W3        30.01R
OCONTO         CLOUDY    32  22  67 W5        30.00R WCI  27
STURGEON BAY   MOCLDY    32  23  69 NW13      29.98R WCI  22
GREEN BAY      CLOUDY    34  25  69 NW12      30.01R WCI  25
MANITOWOC      CLOUDY    34  25  69 NW13      30.01R WCI  25
APPLETON       CLOUDY    32  23  69 NW7       30.00R WCI  26
CLINTONVILLE   CLOUDY    32  23  69 NW5       30.01S WCI  27
OSHKOSH        CLOUDY    33  24  69 W10       30.01R WCI  25
$$

WIZ032>034-041-042-053>061-021100-
SOUTHWEST WISCONSIN

CITY           SKY/WX    TMP DP  RH WIND       PRES   REMARKS
LA CROSSE      CLOUDY    36  26  67 N7        30.08R WCI  30
SPARTA         CLOUDY    32  25  74 NW9       30.08R WCI  24
VIROQUA        CLOUDY    33  30  89 NW8       30.05R WCI  26
BOSCOBEL       CLOUDY    38  31  76 W8        30.07R WCI  32
PRAIRIE DU CHI CLOUDY    37  32  84 W7        30.07S WCI  31
PLATTEVILLE    CLOUDY    36  34  95 W7        30.06R WCI  30
$$

WIZ056-057-062-063-064-067-068-021100-
SOUTH CENTRAL WISCONSIN

CITY           SKY/WX    TMP DP  RH WIND       PRES   REMARKS
REEDSBURG      CLOUDY    34  27  76 NW9       30.04R WCI  26
BARABOO/DELLS  CLOUDY    33  25  71 NW7       30.04R WCI  27
LONE ROCK      CLOUDY    35  32  88 W5        30.06R WCI  31
MINERAL POINT  CLOUDY    36  34  93 W8        30.05R WCI  29
MADISON        CLOUDY    35  30  82 NW5       30.03R WCI  31
MIDDLETON      CLOUDY    36  35  98 W8        30.04R WCI  29
WATERTOWN      CLOUDY    34  27  76 NW7       30.02R WCI  28
MONROE         CLOUDY    34  32  93 W9        30.04R WCI  26
JANESVILLE     CLOUDY    36  34  93 W6        30.04R WCI  31
$$

WIZ051-052-058>065-066-070>072-021100-
SOUTHEAST WISCONSIN

CITY           SKY/WX    TMP DP  RH WIND       PRES   REMARKS
MILWAUKEE      CLOUDY    36  32  85 W9        30.02R WCI  29
WAUKESHA       CLOUDY    32  30  93 W7        30.02S WCI  26
MILWAUKEE/TIMM CLOUDY    34  28  80 NW10      30.03R WCI  26
RACINE         CLOUDY    37  31  78 W6        30.03R WCI  32
BURLINGTON     MIX PCPN  33  32  94 W8        30.03R WCI  27
KENOSHA        CLOUDY    36  32  85 W8        30.03R WCI  30
FOND DU LAC    CLOUDY    33  23  66 W12       30.02R WCI  24
SHEBOYGAN      CLOUDY    34  24  67 NW6       30.00R WCI  29
WEST BEND      CLOUDY    32  27  80 NW8       30.01R WCI  25
JUNEAU         CLOUDY    32  26  77 NW8       30.03R WCI  25
$$

LSZ147-162-021100-
LAKE SUPERIOR

STATION/POSITION TIME  TEMP    WIND        PRES    WAVE
                       AIR SEA DIR/SP/G            HT/PER
                 (UTC) (F)     (DEG/KT/KT) (MB)    (FT/S)
DEVILS ISLAND    0900   30     330/ 10/ 14 1018.1R
PORT WING        0930   31     310/ 12/ 18 1018.3R
SAXON HARBOR     0930   33     280/  9/ 14 1017.3R
$$

LMZ867-665-643>646-021100-
LAKE MICHIGAN

STATION/POSITION TIME  TEMP    WIND        PRES    WAVE
                       AIR SEA DIR/SP/G            HT/PER
                 (UTC) (F)     (DEG/KT/KT) (MB)    (FT/S)
CHAMBERS ISLAND  0940   33     310/ 11/ 17 1014.6R
NORTHPORT PIER   0940   34     300/ 14/ 21 1014.6R
SISTER BAY       0938   35     330/ 21/ 25   N/A
ALGOMA LAKESHORE 0951          320/  8/ 11   N/A
KEWAUNEE LAKESHO 0948   32     310/  6/  9 1015.2R
SHEBOYGAN LAKESH 1000   35     320/  8/ 10 1016.6R
PORT WASHINGTON  0930   36     300/  6/ 11 1017.3R
MILWAUKEE LAKESH 0950   36     290/  8/ 10   N/A
S MID LAKE BUOY  0950   41 49  270/ 17/ 21 1015.7R   4/ 5
KENOSHA   LAKESH 1000   37     270/  8/ 12 1016.9
$$

TC  - TEMPERATURE IN CELSIUS
VSB - VISIBILITY IN STATUTE MILES
WCI - WIND CHILL INDEX
HX  - HEAT INDEX





USA.gov is the U.S. government's official web portal to all federal, state and local government web resources and services.